FENGYUN 1C DEB, 30112

Orbit data source: Space-Track

FENGYUN 1C DEB, 30112 is space debris in SSO originally from a launch on Mon, 10 May 1999 UTC launched from the Taiyaun Space Center, China (TSC). Fengyun 1C debris stems from the Chinese weather satellite Fengyun-1C, which was intentionally destroyed by a Chinese anti-satellite missile in 2007. This event dramatically increased the amount of space debris, with thousands of trackable fragments posing hazards to satellites and human spaceflight. The Fengyun 1C debris cloud has become a focal point in discussions about space sustainability and the need for international regulations to prevent the creation of new debris.

Loading next visibility...
Identifier
30112, 1999-025RR
Orbit
SSO
Country
Flag of CNCN / PRC
Related business
Manufacturer
Unknown
Mission
Spacecraft
Bus & Motor
Unknown
Mass
Unknown
Launch date (UTC)
1999-05-10 (27 years ago)
Launch vehicle
Unknown
Launch site
Taiyaun Space Center, China (TSC)
Object type
Payload
Rocket body
Debris
Shape & HBR
Unknown shape, 0.1 m
Radar Cross Section
Medium (>0.1 m² and <1 m²)

Expand to show TLE details & history
Last TLE update: 23 hours ago

TLE from 23 hours ago
0 FENGYUN 1C DEB
1 30112U 99025RR  26237.43296095  .00001045  00000-0  39577-3 0  9994
2 30112  99.3034 230.5244 0200395 100.2944 262.0891 14.22993838 12174
Epoch: 2026-08-25T10:23Z
TLE epoch observation values (Epoch: 2026-08-25T10:23:27.826Z)
Latitude
-0.00006°
Longitude
100.95808°
Altitude
840.813 km
Speed
7.421 km/s
True Right ascension
15h 22m 05s
True Declination
0° 00' 00"
Sunlit
Object was in daylight at epoch
Visualization orbit readout
Latitude
Unknown
Longitude
Unknown
Altitude
Unknown
Speed
Unknown
Apparent Right ascension
Unknown
Apparent Declination
Unknown
Sunlit
N/A
Visualization observer readout
Local Sidereal Time
00:36:05
Azimuth
Unknown
Elevation
Unknown
Doppler factor
Unknown
Orbital elements
Apogee altitude
956.523 km
Perigee altitude
668.333 km
Semi-major axis
7,190.565 km
Eccentricity
0.02004
Inclination
99.3034°
RAAN
230.5244°
Arg. of periapsis
100.2944°
True anomaly
259.823°
Mean anomaly
262.0891°
Eccentric anomaly
260.9552°
Mean motion
3.55958 °/min
Orbital period
101.14 mins
BSTAR
0.00039577
Loading maneuver chart data...
Computing Atmospheric mass density...
Loading historical data...
Loading historical data...
Loading historical data...
Loading historical data...
Loading historical data...
Loading historical data...
Loading historical data...

Documentation

Showing up to 5 results
|